DW2099 Weather Reports


time (UTC)temp
C
wind
direction
speed
KPH
gust
KPH
rain 1hr
cm
rain 24hr
cm
rain mn
cm
humidity
%
barometer
mb
20260509235516 30 0.0 1.6 0.00 0.00 0.00 69 1008.9
20260509234516 31 0.0 3.2 0.00 0.00 0.00 68 1008.7
20260509233538 31 315 1.6 8.0 0.00 0.00 0.00 66 1008.7
20260509232518 32 0.0 3.2 0.00 0.00 0.00 63 1008.6
20260509231538 32 0.0 3.2 0.00 0.00 0.00 65 1008.6
20260509230538 31 0.0 3.2 0.00 0.00 0.00 66 1008.6
20260509225517 30 0.0 3.2 0.00 0.00 0.00 71 1008.4
20260509224518 29 0.0 1.6 0.00 0.00 0.00 75 1008.4
20260509223518 28 0.0 0.0 0.00 0.00 0.00 75 1008.3
20260509222517 28 0.0 0.0 0.00 0.00 0.00 73 1008.5
20260509221517 28 0.0 1.6 0.00 0.00 0.00 74 1008.3
20260509220517 28 113 1.6 6.4 0.00 0.00 0.00 73 1008.2
20260509215517 28 135 1.6 4.8 0.00 0.00 0.00 72 1008.4
20260509214518 29 90 1.6 9.7 0.00 0.00 0.00 71 1008.5
20260509213538 30 113 1.6 8.0 0.00 0.00 0.00 70 1008.5
20260509212517 31 0.0 3.2 0.00 0.00 0.00 67 1008.4
20260509211518 31 203 1.6 4.8 0.00 0.00 0.00 65 1008.5
20260509210517 32 135 1.6 6.4 0.00 0.00 0.00 63 1008.8
20260509205518 32 0.0 1.6 0.00 0.00 0.00 62 1008.7
20260509204517 33 0.0 3.2 0.00 0.00 0.00 61 1008.9
20260509203517 33 68 1.6 4.8 0.00 0.00 0.00 60 1009.0
20260509202537 33 315 1.6 4.8 0.00 0.00 0.00 62 1009.0
20260509201517 33 90 1.6 4.8 0.00 0.00 0.00 61 1009.5
20260509200518 33 135 3.2 6.4 0.00 0.00 0.00 64 1009.9
20260509195517 32 293 1.6 3.2 0.00 0.00 0.00 63 1009.9
20260509194517 33 90 1.6 8.0 0.00 0.00 0.00 59 1009.8
20260509193517 32 90 1.6 4.8 0.00 0.00 0.00 66 1009.7
20260509192517 32 90 3.2 8.0 0.00 0.00 0.00 65 1010.0
20260509191517 32 270 1.6 6.4 0.00 0.00 0.00 66 1009.9
20260509190517 32 90 1.6 4.8 0.00 0.00 0.00 65 1010.2
20260509185517 32 113 1.6 4.8 0.00 0.00 0.00 67 1010.4
20260509184558 31 338 1.6 4.8 0.00 0.00 0.00 70 1010.8
20260509183517 30 90 1.6 8.0 0.00 0.00 0.00 70 1010.8
20260509182517 30 68 3.2 6.4 0.00 0.00 0.00 72 1010.9
20260509181517 30 90 1.6 4.8 0.00 0.00 0.00 70 1011.1
20260509180557 31 270 1.6 3.2 0.00 0.00 0.00 70 1011.1
20260509175517 30 0.0 1.6 0.00 0.00 0.00 73 1011.2
20260509174537 30 0.0 1.6 0.00 0.00 0.00 73 1011.2
20260509173517 30 90 1.6 6.4 0.00 0.00 0.00 71 1011.4
20260509172517 30 68 1.6 6.4 0.00 0.00 0.00 74 1011.4
20260509171538 29 0.0 4.8 0.00 0.00 0.00 77 1011.3
20260509170517 30 90 1.6 9.7 0.00 0.00 0.00 76 1011.3
20260509165517 29 270 1.6 6.4 0.00 0.00 0.00 78 1011.4
20260509164517 28 293 3.2 6.4 0.00 0.00 0.00 79 1011.4
20260509163517 28 293 1.6 4.8 0.00 0.00 0.00 79 1011.5
20260509162517 28 0.0 4.8 0.00 0.00 0.00 83 1011.3
20260509161517 27 315 1.6 3.2 0.00 0.00 0.00 83 1011.6
20260509160517 26 293 1.6 8.0 0.00 0.00 0.00 85 1011.6
20260509155517 26 0.0 1.6 0.00 0.00 0.00 89 1011.7
20260509154517 25 0.0 3.2 0.00 0.00 0.00 90 1011.6
20260509153517 25 0.0 1.6 0.00 0.00 0.00 91 1011.6
20260509152517 25 0.0 3.2 0.00 0.00 0.00 91 1011.5
20260509151537 25 0.0 3.2 0.00 0.00 0.00 92 1011.5
20260509150537 24 0.0 8.0 0.00 0.00 0.00 93 1011.4
20260509145517 24 23 1.6 6.4 0.00 0.00 0.00 93 1011.2
20260509144517 23 0.0 3.2 0.00 0.00 0.00 94 1011.2
20260509143516 23 0.0 1.6 0.00 0.00 0.00 95 1011.6
20260509142517 23 0.0 1.6 0.00 0.00 0.00 95 1011.4
20260509141517 23 0.0 1.6 0.00 0.00 0.00 95 1011.3
20260509140516 23 0.0 1.6 0.00 0.00 0.00 95 1011.1
20260509135516 23 0.0 0.0 0.00 0.00 0.00 95 1011.1
20260509134516 23 0.0 3.2 0.00 0.00 0.00 95 1011.4
20260509133517 23 0.0 1.6 0.00 0.00 0.00 95 1011.6
20260509132516 23 0.0 1.6 0.00 0.00 0.00 95 1011.5
20260509131536 23 315 1.6 3.2 0.00 0.00 0.00 95 1011.4
20260509130517 22 0.0 1.6 0.00 0.00 0.00 95 1011.3
20260509125537 23 0.0 0.0 0.00 0.00 0.00 95 1011.2
20260509124517 23 0.0 0.0 0.00 0.00 0.00 95 1011.2
20260509123517 22 0.0 0.0 0.00 0.00 0.00 95 1011.2
20260509122537 22 0.0 1.6 0.00 0.00 0.00 95 1011.2
20260509121517 22 0.0 0.0 0.00 0.00 0.00 95 1011.5
20260509120516 22 0.0 0.0 0.00 0.00 0.00 95 1011.3
20260509115517 22 0.0 0.0 0.00 0.00 0.00 95 1011.2
20260509114537 22 0.0 1.6 0.00 0.00 0.00 95 1011.0
20260509113516 22 0.0 1.6 0.00 0.00 0.00 94 1011.1
20260509112537 22 0.0 1.6 0.00 0.00 0.00 94 1011.0
20260509111516 22 135 1.6 4.8 0.00 0.00 0.00 94 1011.3
20260509110516 23 0.0 1.6 0.00 0.00 0.00 94 1011.2
20260509105516 23 0.0 1.6 0.00 0.00 0.00 94 1011.6
20260509104536 23 0.0 0.0 0.00 0.00 0.00 94 1011.8
20260509103537 23 0.0 0.0 0.00 0.00 0.00 94 1011.8
20260509102516 23 0.0 1.6 0.00 0.00 0.00 94 1011.6
20260509101516 23 0.0 0.0 0.00 0.00 0.00 94 1011.4
20260509100516 23 0.0 0.0 0.00 0.00 0.00 94 1011.0
20260509095516 23 0.0 0.0 0.00 0.00 0.00 94 1010.9
20260509094516 23 0.0 0.0 0.00 0.00 0.00 94 1010.7
20260509093557 23 0.0 0.0 0.00 0.00 0.00 94 1010.8
20260509092516 23 0.0 0.0 0.00 0.00 0.00 94 1010.6
20260509091517 23 0.0 0.0 0.00 0.00 0.00 94 1010.5
20260509090516 23 0.0 1.6 0.00 0.00 0.00 94 1010.3
20260509085516 23 0.0 0.0 0.00 0.00 0.00 94 1010.6
20260509084516 23 0.0 0.0 0.00 0.00 0.00 94 1010.9
20260509083516 23 0.0 0.0 0.00 0.00 0.00 94 1011.2
20260509082556 23 0.0 0.0 0.00 0.00 0.00 94 1011.2
20260509081516 23 0.0 0.0 0.00 0.00 0.00 94 1011.3
20260509080516 23 0.0 0.0 0.00 0.00 0.00 94 1011.1
20260509075536 23 0.0 0.0 0.00 0.00 0.00 94 1011.2
20260509074516 23 0.0 0.0 0.00 0.00 0.00 94 1011.1
20260509073516 23 0.0 0.0 0.00 0.00 0.00 94 1011.1
20260509072516 23 0.0 1.6 0.00 0.00 0.00 94 1010.9
20260509071516 23 0.0 0.0 0.00 0.00 0.00 94 1010.8
20260509070516 23 0.0 3.2 0.00 0.00 0.00 94 1010.9
20260509065516 23 293 1.6 6.4 0.00 0.00 0.00 93 1010.7
20260509064516 23 0.0 3.2 0.00 0.00 0.00 93 1010.9
20260509063516 23 0.0 4.8 0.00 0.00 0.00 93 1010.7
20260509062516 23 293 1.6 6.4 0.00 0.00 0.00 93 1010.8
20260509061516 23 315 1.6 4.8 0.00 0.00 0.00 93 1010.7
20260509060516 23 315 1.6 8.0 0.00 0.00 0.00 93 1010.7
20260509055516 23 293 1.6 4.8 0.00 0.00 0.00 93 1010.8
20260509054519 23 293 4.8 11.3 0.00 0.00 0.00 93 1011.1
20260509053538 23 293 1.6 6.4 0.00 0.00 0.00 92 1010.7
20260509052536 23 293 3.2 9.7 0.00 0.00 0.00 92 1010.4
20260509051516 23 293 3.2 8.0 0.00 0.00 0.00 92 1010.6
20260509050516 23 315 3.2 8.0 0.00 0.00 0.00 92 1010.6
20260509045557 23 293 3.2 6.4 0.00 0.00 0.00 92 1010.6
20260509044516 23 293 3.2 11.3 0.00 0.00 0.00 92 1010.6
20260509043536 23 293 1.6 4.8 0.00 0.00 0.00 91 1010.6
20260509042556 23 293 1.6 8.0 0.00 0.00 0.00 91 1010.7
20260509041518 23 315 1.6 4.8 0.00 0.00 0.00 91 1010.9
20260509040516 23 293 1.6 4.8 0.00 0.00 0.00 91 1010.8
20260509035516 23 0.0 1.6 0.00 0.00 0.00 91 1010.7
20260509034556 23 0.0 3.2 0.00 0.00 0.00 90 1010.6
20260509033536 23 0.0 3.2 0.00 0.00 0.00 90 1010.5
20260509032516 23 0.0 1.6 0.00 0.00 0.00 90 1010.5
20260509031516 23 0.0 0.0 0.00 0.00 0.00 89 1010.5
20260509030516 23 0.0 0.0 0.00 0.00 0.00 88 1010.2
20260509025516 23 0.0 0.0 0.00 0.00 0.00 88 1010.0
20260509024516 24 0.0 0.0 0.00 0.00 0.00 87 1009.9
20260509023536 24 0.0 0.0 0.00 0.00 0.00 87 1009.7
20260509022516 24 0.0 0.0 0.00 0.00 0.00 87 1009.7
20260509021536 24 0.0 0.0 0.00 0.00 0.00 86 1009.7
20260509020556 24 0.0 0.0 0.00 0.00 0.00 86 1009.4
20260509015536 25 0.0 0.0 0.00 0.00 0.00 86 1009.3
20260509014516 25 0.0 1.6 0.00 0.00 0.00 85 1009.3
20260509013516 25 0.0 3.2 0.00 0.00 0.00 85 1009.2
20260509012536 25 0.0 0.0 0.00 0.00 0.00 84 1009.3
20260509011516 25 0.0 0.0 0.00 0.00 0.00 84 1009.5
20260509010515 25 0.0 0.0 0.00 0.00 0.00 83 1009.4
20260509005536 25 0.0 1.6 0.00 0.00 0.00 83 1009.2
20260509004516 25 0.0 0.0 0.00 0.00 0.00 83 1009.3
20260509003516 26 0.0 3.2 0.00 0.00 0.00 82 1009.4
20260509002556 26 0.0 3.2 0.00 0.00 0.00 82 1009.2
20260509001516 26 0.0 3.2 0.00 0.00 0.00 81 1009.3
20260509000516 26 0.0 3.2 0.00 0.00 0.00 81 1009.2